| time (UTC) | temp F | wind direction | speed knots | gust knots | rain 1hr in | rain 24hr in | rain mn in | humidity % | barometer mb |
| 20260906021007 | 74 | 58 | 3.5 | 7.0 | 0.00 | 0.00 | 0.00 | 89 | 1014.7 |
| 20260906020507 | 74 | 64 | 4.3 | 7.8 | 0.00 | 0.00 | 0.00 | 89 | 1014.7 |
| 20260906020108 | 74 | 60 | 3.5 | 7.8 | 0.00 | 0.00 | 0.00 | 89 | 1014.9 |
| 20260906020025 | 74 | 60 | 3.5 | 7.8 | 0.00 | 0.00 | 0.00 | 88 | 1014.6 |
| 20260906015508 | 74 | 60 | 5.2 | 7.8 | 0.00 | 0.00 | 0.00 | 88 | 1014.6 |
| 20260906015010 | 75 | 53 | 5.2 | 7.8 | 0.00 | 0.00 | 0.00 | 88 | 1014.6 |
| 20260906014603 | 75 | 78 | 5.2 | 9.6 | 0.00 | 0.00 | 0.00 | 88 | 1014.7 |
| 20260906014528 | 75 | 39 | 5.2 | 9.6 | 0.00 | 0.00 | 0.00 | 88 | 1014.5 |
| 20260906014012 | 75 | 62 | 5.2 | 9.6 | 0.00 | 0.00 | 0.00 | 88 | 1014.6 |
| 20260906013506 | 75 | 33 | 5.2 | 9.6 | 0.00 | 0.00 | 0.00 | 87 | 1014.6 |
| 20260906013111 | 76 | 70 | 6.1 | 9.6 | 0.00 | 0.00 | 0.00 | 87 | 1014.8 |
| 20260906013008 | 76 | 74 | 6.1 | 9.6 | 0.00 | 0.00 | 0.00 | 87 | 1014.5 |
| 20260906012503 | 76 | 73 | 4.3 | 8.7 | 0.00 | 0.00 | 0.00 | 87 | 1014.4 |
| 20260906012003 | 76 | 62 | 4.3 | 8.7 | 0.00 | 0.00 | 0.00 | 86 | 1014.3 |
| 20260906011608 | 76 | 63 | 6.1 | 8.7 | 0.00 | 0.00 | 0.00 | 86 | 1014.4 |
| 20260906011510 | 77 | 58 | 6.1 | 8.7 | 0.00 | 0.00 | 0.00 | 86 | 1014.2 |
| 20260906011003 | 77 | 72 | 5.2 | 9.6 | 0.00 | 0.00 | 0.00 | 85 | 1014.2 |
| 20260906010508 | 77 | 60 | 4.3 | 9.6 | 0.00 | 0.00 | 0.00 | 85 | 1014.2 |
| 20260906010018 | 77 | 51 | 4.3 | 8.7 | 0.00 | 0.00 | 0.00 | 85 | 1014.2 |
| 20260906005509 | 78 | 43 | 4.3 | 10.4 | 0.00 | 0.00 | 0.00 | 85 | 1014.1 |
| 20260906005009 | 78 | 76 | 6.1 | 10.4 | 0.00 | 0.00 | 0.00 | 85 | 1014.0 |
| 20260906004612 | 78 | 73 | 3.5 | 7.0 | 0.00 | 0.00 | 0.00 | 85 | 1014.2 |
| 20260906004524 | 78 | 65 | 4.3 | 7.0 | 0.00 | 0.00 | 0.00 | 85 | 1014.0 |
| 20260906004012 | 78 | 74 | 3.5 | 7.0 | 0.00 | 0.00 | 0.00 | 84 | 1014.2 |
| 20260906003511 | 79 | 70 | 3.5 | 7.0 | 0.00 | 0.00 | 0.00 | 84 | 1014.1 |
| 20260906003105 | 79 | 66 | 3.5 | 5.2 | 0.00 | 0.00 | 0.00 | 83 | 1014.1 |
| 20260906003028 | 79 | 70 | 3.5 | 5.2 | 0.00 | 0.00 | 0.00 | 83 | 1014.0 |
| 20260906002514 | 80 | 80 | 2.6 | 7.0 | 0.00 | 0.00 | 0.00 | 83 | 1013.9 |
| 20260906002003 | 80 | 68 | 3.5 | 7.0 | 0.00 | 0.00 | 0.00 | 82 | 1013.8 |
| 20260906001601 | 80 | 68 | 4.3 | 9.6 | 0.00 | 0.00 | 0.00 | 81 | 1013.9 |
| 20260906001512 | 80 | 64 | 4.3 | 9.6 | 0.00 | 0.00 | 0.00 | 81 | 1013.8 |
| 20260906001003 | 81 | 57 | 5.2 | 9.6 | 0.00 | 0.00 | 0.00 | 81 | 1013.6 |
| 20260906000503 | 81 | 60 | 4.3 | 8.7 | 0.00 | 0.00 | 0.00 | 80 | 1013.7 |
| 20260906000107 | 82 | 53 | 3.5 | 8.7 | 0.00 | 0.00 | 0.00 | 80 | 1013.8 |
| 20260906000012 | 82 | 43 | 3.5 | 8.7 | 0.00 | 0.00 | 0.00 | 80 | 1013.7 |
| 20260905235507 | 82 | 56 | 4.3 | 9.6 | 0.00 | 0.00 | 0.00 | 79 | 1013.8 |
| 20260905235009 | 83 | 53 | 6.1 | 9.6 | 0.00 | 0.00 | 0.00 | 77 | 1013.5 |
| 20260905234602 | 83 | 70 | 5.2 | 8.7 | 0.00 | 0.00 | 0.00 | 77 | 1013.6 |
| 20260905234515 | 84 | 68 | 6.1 | 8.7 | 0.00 | 0.00 | 0.00 | 77 | 1013.6 |
| 20260905234014 | 84 | 56 | 3.5 | 7.0 | 0.00 | 0.00 | 0.00 | 76 | 1013.5 |
| 20260905233510 | 85 | 68 | 2.6 | 7.0 | 0.00 | 0.00 | 0.00 | 75 | 1013.7 |
| 20260905233059 | 85 | 73 | 2.6 | 5.2 | 0.00 | 0.00 | 0.00 | 74 | 1013.7 |
| 20260905233024 | 85 | 65 | 3.5 | 5.2 | 0.00 | 0.00 | 0.00 | 74 | 1013.6 |
| 20260905232512 | 86 | 63 | 1.7 | 6.1 | 0.00 | 0.00 | 0.00 | 72 | 1013.6 |
| 20260905232012 | 86 | 67 | 2.6 | 6.1 | 0.00 | 0.00 | 0.00 | 72 | 1013.4 |
| 20260905231603 | 86 | 69 | 3.5 | 6.1 | 0.00 | 0.00 | 0.00 | 71 | 1013.4 |
| 20260905231528 | 86 | 58 | 3.5 | 6.1 | 0.00 | 0.00 | 0.00 | 72 | 1013.2 |
| 20260905231003 | 86 | 73 | 2.6 | 5.2 | 0.00 | 0.00 | 0.00 | 72 | 1013.2 |
| 20260905230504 | 87 | 72 | 2.6 | 6.1 | 0.00 | 0.00 | 0.00 | 71 | 1013.1 |
| 20260905230010 | 87 | 54 | 2.6 | 6.1 | 0.00 | 0.00 | 0.00 | 71 | 1013.1 |
| 20260905225504 | 88 | 39 | 1.7 | 6.1 | 0.00 | 0.00 | 0.00 | 71 | 1013.3 |
| 20260905225003 | 88 | 68 | 3.5 | 6.1 | 0.00 | 0.00 | 0.00 | 70 | 1013.1 |
| 20260905224600 | 89 | 58 | 3.5 | 6.1 | 0.00 | 0.00 | 0.00 | 70 | 1013.2 |
| 20260905224516 | 89 | 65 | 2.6 | 6.1 | 0.00 | 0.00 | 0.00 | 69 | 1013.1 |
| 20260905224008 | 89 | 54 | 2.6 | 6.1 | 0.00 | 0.00 | 0.00 | 69 | 1013.1 |
| 20260905223510 | 89 | 75 | 1.7 | 7.0 | 0.00 | 0.00 | 0.00 | 67 | 1013.1 |
| 20260905223105 | 90 | 74 | 2.6 | 7.0 | 0.00 | 0.00 | 0.00 | 67 | 1013.2 |
| 20260905223020 | 90 | 88 | 2.6 | 7.0 | 0.00 | 0.00 | 0.00 | 67 | 1013.0 |
| 20260905222509 | 91 | 67 | 0.0 | 6.1 | 0.00 | 0.00 | 0.00 | 66 | 1013.0 |
| 20260905222010 | 91 | 331 | 0.0 | 5.2 | 0.00 | 0.00 | 0.00 | 67 | 1013.0 |
| 20260905221604 | 91 | 281 | 0.9 | 5.2 | 0.00 | 0.00 | 0.00 | 68 | 1013.3 |
| 20260905221527 | 91 | 281 | 0.9 | 5.2 | 0.00 | 0.00 | 0.00 | 66 | 1013.1 |
| 20260905221013 | 91 | 86 | 0.9 | 5.2 | 0.00 | 0.00 | 0.00 | 66 | 1013.0 |
| 20260905220513 | 91 | 359 | 1.7 | 7.0 | 0.00 | 0.00 | 0.00 | 67 | 1013.0 |
| 20260905220107 | 91 | 96 | 1.7 | 7.0 | 0.00 | 0.00 | 0.00 | 65 | 1013.2 |
| 20260905220029 | 91 | 65 | 1.7 | 7.0 | 0.00 | 0.00 | 0.00 | 64 | 1012.9 |
| 20260905215504 | 92 | 324 | 0.9 | 3.5 | 0.00 | 0.00 | 0.00 | 66 | 1012.9 |
| 20260905215006 | 92 | 120 | 0.9 | 3.5 | 0.00 | 0.00 | 0.00 | 66 | 1012.9 |
| 20260905214604 | 91 | 118 | 0.9 | 4.3 | 0.00 | 0.00 | 0.00 | 66 | 1013.2 |
| 20260905214513 | 91 | 118 | 0.9 | 4.3 | 0.00 | 0.00 | 0.00 | 66 | 1013.0 |
| 20260905214007 | 91 | 324 | 0.0 | 4.3 | 0.00 | 0.00 | 0.00 | 67 | 1012.9 |
| 20260905213509 | 91 | 66 | 0.9 | 4.3 | 0.00 | 0.00 | 0.00 | 66 | 1012.9 |
| 20260905213107 | 91 | 86 | 1.7 | 4.3 | 0.00 | 0.00 | 0.00 | 66 | 1013.1 |
| 20260905213017 | 91 | 46 | 1.7 | 4.3 | 0.00 | 0.00 | 0.00 | 66 | 1012.9 |
| 20260905212509 | 91 | 56 | 0.9 | 5.2 | 0.00 | 0.00 | 0.00 | 66 | 1012.9 |
| 20260905212008 | 91 | 54 | 2.6 | 6.1 | 0.00 | 0.00 | 0.00 | 65 | 1012.8 |
| 20260905211605 | 91 | 70 | 3.5 | 6.1 | 0.00 | 0.00 | 0.00 | 65 | 1013.0 |
| 20260905211527 | 92 | 45 | 3.5 | 6.1 | 0.00 | 0.00 | 0.00 | 65 | 1012.8 |
| 20260905211011 | 91 | 56 | 0.0 | 4.3 | 0.00 | 0.00 | 0.00 | 67 | 1012.9 |
| 20260905210511 | 91 | 31 | 2.6 | 4.3 | 0.00 | 0.00 | 0.00 | 66 | 1013.0 |
| 20260905210123 | 91 | 15 | 0.9 | 3.5 | 0.00 | 0.00 | 0.00 | 66 | 1013.2 |
| 20260905210029 | 91 | 44 | 1.7 | 3.5 | 0.00 | 0.00 | 0.00 | 67 | 1013.0 |
| 20260905205515 | 91 | 44 | 0.0 | 4.3 | 0.00 | 0.00 | 0.00 | 66 | 1013.0 |
| 20260905205013 | 92 | 50 | 0.0 | 5.2 | 0.00 | 0.00 | 0.00 | 66 | 1013.0 |
| 20260905204604 | 92 | 20 | 0.9 | 5.2 | 0.00 | 0.00 | 0.00 | 64 | 1013.2 |
| 20260905204531 | 92 | 112 | 0.9 | 5.2 | 0.00 | 0.00 | 0.00 | 66 | 1013.1 |
| 20260905204004 | 92 | 63 | 2.6 | 5.2 | 0.00 | 0.00 | 0.00 | 65 | 1013.0 |
| 20260905203508 | 92 | 88 | 1.7 | 6.1 | 0.00 | 0.00 | 0.00 | 66 | 1013.0 |
| 20260905203104 | 92 | 68 | 1.7 | 6.1 | 0.00 | 0.00 | 0.00 | 66 | 1013.1 |
| 20260905203014 | 92 | 47 | 1.7 | 6.1 | 0.00 | 0.00 | 0.00 | 66 | 1013.0 |
| 20260905202507 | 92 | 70 | 1.7 | 3.5 | 0.00 | 0.00 | 0.00 | 66 | 1013.2 |
| 20260905202008 | 92 | 81 | 0.0 | 4.3 | 0.00 | 0.00 | 0.00 | 65 | 1013.1 |
| 20260905201602 | 92 | 0 | 1.7 | 6.1 | 0.00 | 0.00 | 0.00 | 67 | 1013.3 |
| 20260905201520 | 92 | 316 | 1.7 | 6.1 | 0.00 | 0.00 | 0.00 | 65 | 1013.1 |
| 20260905201010 | 92 | 76 | 2.6 | 6.1 | 0.00 | 0.00 | 0.00 | 64 | 1013.0 |
| 20260905200509 | 92 | 319 | 2.6 | 5.2 | 0.00 | 0.00 | 0.00 | 66 | 1013.2 |
| 20260905200107 | 91 | 293 | 0.9 | 7.8 | 0.00 | 0.00 | 0.00 | 69 | 1013.3 |
| 20260905200033 | 91 | 89 | 0.9 | 7.8 | 0.00 | 0.00 | 0.00 | 70 | 1013.1 |
| 20260905195514 | 91 | 80 | 1.7 | 7.8 | 0.00 | 0.00 | 0.00 | 67 | 1013.2 |
| 20260905195016 | 92 | 343 | 1.7 | 7.8 | 0.00 | 0.00 | 0.00 | 68 | 1013.1 |
| 20260905194609 | 91 | 75 | 0.9 | 5.2 | 0.00 | 0.00 | 0.00 | 67 | 1013.4 |
| 20260905194528 | 91 | 56 | 0.9 | 5.2 | 0.00 | 0.00 | 0.00 | 67 | 1013.2 |
| 20260905194014 | 92 | 69 | 1.7 | 5.2 | 0.00 | 0.00 | 0.00 | 67 | 1013.1 |
| 20260905193521 | 92 | 59 | 1.7 | 4.3 | 0.00 | 0.00 | 0.00 | 66 | 1013.1 |
| 20260905193105 | 92 | 0 | 0.0 | 1.7 | 0.00 | 0.00 | 0.00 | 69 | 1013.3 |
| 20260905193034 | 92 | 319 | 0.0 | 1.7 | 0.00 | 0.00 | 0.00 | 68 | 1013.3 |
| 20260905192506 | 92 | 149 | 0.0 | 3.5 | 0.00 | 0.00 | 0.00 | 67 | 1013.4 |
| 20260905192005 | 92 | 60 | 1.7 | 4.3 | 0.00 | 0.00 | 0.00 | 65 | 1013.3 |
| 20260905191608 | 93 | 278 | 0.9 | 4.3 | 0.00 | 0.00 | 0.00 | 65 | 1013.5 |
| 20260905191515 | 93 | 307 | 0.9 | 4.3 | 0.00 | 0.00 | 0.00 | 64 | 1013.4 |
| 20260905191008 | 93 | 84 | 0.9 | 4.3 | 0.00 | 0.00 | 0.00 | 65 | 1013.4 |
| 20260905190509 | 93 | 352 | 0.0 | 4.3 | 0.00 | 0.00 | 0.00 | 64 | 1013.5 |
| 20260905190119 | 93 | 79 | 1.7 | 4.3 | 0.00 | 0.00 | 0.00 | 64 | 1013.5 |
| 20260905190034 | 93 | 18 | 1.7 | 4.3 | 0.00 | 0.00 | 0.00 | 66 | 1013.4 |
| 20260905185512 | 92 | 96 | 0.9 | 3.5 | 0.00 | 0.00 | 0.00 | 68 | 1013.5 |
| 20260905185012 | 93 | 94 | 0.9 | 5.2 | 0.00 | 0.00 | 0.00 | 64 | 1013.6 |
| 20260905184624 | 93 | 284 | 0.9 | 5.2 | 0.00 | 0.00 | 0.00 | 64 | 1013.7 |
| 20260905184537 | 93 | 258 | 0.0 | 5.2 | 0.00 | 0.00 | 0.00 | 65 | 1013.7 |
| 20260905184014 | 93 | 4 | 1.7 | 4.3 | 0.00 | 0.00 | 0.00 | 66 | 1013.6 |
| 20260905183513 | 92 | 247 | 1.7 | 4.3 | 0.00 | 0.00 | 0.00 | 66 | 1013.6 |
| 20260905183105 | 92 | 260 | 1.7 | 5.2 | 0.00 | 0.00 | 0.00 | 65 | 1013.8 |
| 20260905183031 | 92 | 281 | 1.7 | 5.2 | 0.00 | 0.00 | 0.00 | 65 | 1013.6 |
| 20260905182513 | 93 | 290 | 1.7 | 5.2 | 0.00 | 0.00 | 0.00 | 65 | 1013.7 |
| 20260905182018 | 93 | 60 | 1.7 | 4.3 | 0.00 | 0.00 | 0.00 | 65 | 1013.8 |
| 20260905181607 | 93 | 63 | 0.9 | 4.3 | 0.00 | 0.00 | 0.00 | 66 | 1013.9 |
| 20260905181534 | 93 | 61 | 1.7 | 4.3 | 0.00 | 0.00 | 0.00 | 65 | 1013.9 |
| 20260905181007 | 93 | 44 | 0.9 | 4.3 | 0.00 | 0.00 | 0.00 | 66 | 1013.9 |
| 20260905180504 | 92 | 63 | 0.9 | 4.3 | 0.00 | 0.00 | 0.00 | 66 | 1013.8 |
| 20260905180108 | 92 | 86 | 1.7 | 5.2 | 0.00 | 0.00 | 0.00 | 66 | 1014.1 |
| 20260905180016 | 92 | 237 | 0.9 | 5.2 | 0.00 | 0.00 | 0.00 | 67 | 1013.9 |
| 20260905175509 | 92 | 68 | 1.7 | 5.2 | 0.00 | 0.00 | 0.00 | 66 | 1013.9 |
| 20260905175012 | 92 | 65 | 2.6 | 4.3 | 0.00 | 0.00 | 0.00 | 64 | 1013.9 |
| 20260905174603 | 92 | 0 | 1.7 | 3.5 | 0.00 | 0.00 | 0.00 | 66 | 1014.2 |
| 20260905174526 | 92 | 326 | 1.7 | 3.5 | 0.00 | 0.00 | 0.00 | 66 | 1014.0 |
| 20260905174012 | 92 | 124 | 0.9 | 3.5 | 0.00 | 0.00 | 0.00 | 69 | 1014.0 |
| 20260905173513 | 92 | 15 | 0.9 | 5.2 | 0.00 | 0.00 | 0.00 | 68 | 1013.9 |
| 20260905173113 | 92 | 274 | 1.7 | 5.2 | 0.00 | 0.00 | 0.00 | 72 | 1014.2 |
| 20260905173027 | 92 | 297 | 0.9 | 5.2 | 0.00 | 0.00 | 0.00 | 70 | 1014.0 |
| 20260905172502 | 92 | 75 | 1.7 | 4.3 | 0.00 | 0.00 | 0.00 | 66 | 1014.1 |
| 20260905172003 | 91 | 100 | 0.9 | 4.3 | 0.00 | 0.00 | 0.00 | 68 | 1014.0 |
| 20260905171621 | 91 | 259 | 1.7 | 5.2 | 0.00 | 0.00 | 0.00 | 68 | 1014.2 |
| 20260905171508 | 91 | 95 | 0.9 | 5.2 | 0.00 | 0.00 | 0.00 | 67 | 1013.9 |
| 20260905171002 | 91 | 303 | 0.9 | 5.2 | 0.00 | 0.00 | 0.00 | 70 | 1013.9 |
| 20260905170505 | 91 | 60 | 0.9 | 5.2 | 0.00 | 0.00 | 0.00 | 70 | 1014.1 |
| 20260905170101 | 91 | 281 | 1.7 | 5.2 | 0.00 | 0.00 | 0.00 | 70 | 1014.4 |
| 20260905170011 | 91 | 84 | 0.9 | 5.2 | 0.00 | 0.00 | 0.00 | 67 | 1014.1 |
| 20260905165507 | 91 | 89 | 1.7 | 5.2 | 0.00 | 0.00 | 0.00 | 70 | 1014.2 |
| 20260905165006 | 91 | 123 | 1.7 | 4.3 | 0.00 | 0.00 | 0.00 | 68 | 1014.3 |
| 20260905164603 | 91 | 104 | 1.7 | 4.3 | 0.00 | 0.00 | 0.00 | 68 | 1014.7 |
| 20260905164520 | 91 | 278 | 1.7 | 4.3 | 0.00 | 0.00 | 0.00 | 69 | 1014.4 |
| 20260905164017 | 91 | 345 | 0.0 | 3.5 | 0.00 | 0.00 | 0.00 | 67 | 1014.3 |
| 20260905163509 | 91 | 307 | 0.9 | 3.5 | 0.00 | 0.00 | 0.00 | 69 | 1014.2 |
| 20260905163115 | 91 | 310 | 0.0 | 3.5 | 0.00 | 0.00 | 0.00 | 67 | 1014.5 |
| 20260905163027 | 91 | 253 | 0.0 | 3.5 | 0.00 | 0.00 | 0.00 | 69 | 1014.2 |
| 20260905162513 | 91 | 64 | 1.7 | 3.5 | 0.00 | 0.00 | 0.00 | 67 | 1014.2 |
| 20260905162014 | 90 | 75 | 1.7 | 6.1 | 0.00 | 0.00 | 0.00 | 68 | 1014.3 |
| 20260905161606 | 90 | 345 | 1.7 | 6.1 | 0.00 | 0.00 | 0.00 | 70 | 1014.6 |
| 20260905161530 | 90 | 290 | 1.7 | 6.1 | 0.00 | 0.00 | 0.00 | 70 | 1014.3 |
| 20260905161003 | 90 | 298 | 1.7 | 5.2 | 0.00 | 0.00 | 0.00 | 69 | 1014.3 |
| 20260905160504 | 90 | 221 | 0.9 | 3.5 | 0.00 | 0.00 | 0.00 | 69 | 1014.2 |
| 20260905160107 | 90 | 335 | 1.7 | 3.5 | 0.00 | 0.00 | 0.00 | 70 | 1014.5 |
| 20260905160017 | 90 | 248 | 1.7 | 3.5 | 0.00 | 0.00 | 0.00 | 70 | 1014.2 |
| 20260905155504 | 90 | 314 | 0.9 | 3.5 | 0.00 | 0.00 | 0.00 | 69 | 1014.1 |
| 20260905155007 | 90 | 256 | 0.9 | 3.5 | 0.00 | 0.00 | 0.00 | 70 | 1014.0 |
| 20260905154617 | 90 | 340 | 1.7 | 3.5 | 0.00 | 0.00 | 0.00 | 69 | 1014.2 |
| 20260905154513 | 90 | 304 | 0.9 | 3.5 | 0.00 | 0.00 | 0.00 | 71 | 1014.0 |
| 20260905154006 | 89 | 261 | 0.9 | 3.5 | 0.00 | 0.00 | 0.00 | 68 | 1014.0 |
| 20260905153510 | 89 | 259 | 1.7 | 3.5 | 0.00 | 0.00 | 0.00 | 70 | 1014.0 |
| 20260905153113 | 89 | 0 | 0.9 | 3.5 | 0.00 | 0.00 | 0.00 | 72 | 1014.2 |
| 20260905153027 | 89 | 290 | 0.9 | 3.5 | 0.00 | 0.00 | 0.00 | 70 | 1014.0 |
| 20260905152512 | 88 | 258 | 0.9 | 6.1 | 0.00 | 0.00 | 0.00 | 70 | 1014.0 |
| 20260905152012 | 88 | 297 | 1.7 | 6.1 | 0.00 | 0.00 | 0.00 | 69 | 1014.1 |
| 20260905151615 | 88 | 283 | 1.7 | 5.2 | 0.00 | 0.00 | 0.00 | 71 | 1014.3 |
| 20260905151528 | 88 | 289 | 0.9 | 5.2 | 0.00 | 0.00 | 0.00 | 72 | 1014.1 |
| 20260905151013 | 88 | 139 | 0.9 | 5.2 | 0.00 | 0.00 | 0.00 | 73 | 1014.0 |
| 20260905150515 | 88 | 237 | 1.7 | 5.2 | 0.00 | 0.00 | 0.00 | 72 | 1014.0 |
| 20260905150107 | 88 | 306 | 0.9 | 5.2 | 0.00 | 0.00 | 0.00 | 73 | 1014.2 |
| 20260905150030 | 88 | 305 | 0.0 | 5.2 | 0.00 | 0.00 | 0.00 | 75 | 1014.0 |
| 20260905145502 | 87 | 285 | 0.9 | 6.1 | 0.00 | 0.00 | 0.00 | 75 | 1013.9 |
| 20260905145004 | 87 | 6 | 0.9 | 7.8 | 0.00 | 0.00 | 0.00 | 75 | 1013.8 |
| 20260905144607 | 87 | 284 | 2.6 | 7.8 | 0.00 | 0.00 | 0.00 | 73 | 1014.0 |
| 20260905144521 | 87 | 294 | 2.6 | 7.8 | 0.00 | 0.00 | 0.00 | 74 | 1013.8 |
| 20260905144006 | 86 | 264 | 3.5 | 7.8 | 0.00 | 0.00 | 0.00 | 75 | 1013.7 |
| 20260905143510 | 86 | 271 | 2.6 | 7.8 | 0.00 | 0.00 | 0.00 | 75 | 1013.6 |
| 20260905143101 | 85 | 281 | 3.5 | 6.1 | 0.00 | 0.00 | 0.00 | 77 | 1013.7 |
| 20260905143022 | 85 | 295 | 3.5 | 6.1 | 0.00 | 0.00 | 0.00 | 76 | 1013.6 |
| 20260905142507 | 85 | 281 | 3.5 | 6.1 | 0.00 | 0.00 | 0.00 | 77 | 1013.6 |
| 20260905142009 | 84 | 285 | 1.7 | 4.3 | 0.00 | 0.00 | 0.00 | 81 | 1013.6 |
| 20260905141601 | 84 | 278 | 2.6 | 4.3 | 0.00 | 0.00 | 0.00 | 80 | 1013.8 |
| 20260905141525 | 84 | 281 | 2.6 | 4.3 | 0.00 | 0.00 | 0.00 | 81 | 1013.7 |
| 20260905141010 | 83 | 273 | 1.7 | 3.5 | 0.00 | 0.00 | 0.00 | 82 | 1013.7 |
| 20260905140513 | 83 | 254 | 0.9 | 3.5 | 0.00 | 0.00 | 0.00 | 84 | 1013.8 |
| 20260905140105 | 82 | 291 | 1.7 | 4.3 | 0.00 | 0.00 | 0.00 | 83 | 1014.1 |
| 20260905140030 | 82 | 288 | 1.7 | 4.3 | 0.00 | 0.00 | 0.00 | 83 | 1013.8 |
| 20260905135513 | 82 | 241 | 2.6 | 4.3 | 0.00 | 0.00 | 0.00 | 82 | 1013.8 |
| 20260905135014 | 83 | 289 | 1.7 | 3.5 | 0.00 | 0.00 | 0.00 | 82 | 1013.9 |
| 20260905134604 | 83 | 262 | 1.7 | 5.2 | 0.00 | 0.00 | 0.00 | 82 | 1014.2 |
| 20260905134530 | 83 | 250 | 1.7 | 5.2 | 0.00 | 0.00 | 0.00 | 82 | 1013.9 |
| 20260905134005 | 83 | 281 | 2.6 | 5.2 | 0.00 | 0.00 | 0.00 | 81 | 1013.9 |
| 20260905133508 | 83 | 269 | 1.7 | 3.5 | 0.00 | 0.00 | 0.00 | 82 | 1013.9 |
| 20260905133104 | 82 | 272 | 0.9 | 2.6 | 0.00 | 0.00 | 0.00 | 84 | 1014.0 |
| 20260905133015 | 82 | 271 | 0.9 | 2.6 | 0.00 | 0.00 | 0.00 | 84 | 1013.8 |
| 20260905132509 | 82 | 282 | 1.7 | 2.6 | 0.00 | 0.00 | 0.00 | 85 | 1013.7 |
| 20260905132010 | 81 | 281 | 0.9 | 2.6 | 0.00 | 0.00 | 0.00 | 85 | 1013.7 |
| 20260905131605 | 81 | 295 | 0.9 | 2.6 | 0.00 | 0.00 | 0.00 | 86 | 1013.9 |
| 20260905131520 | 81 | 281 | 0.9 | 2.6 | 0.00 | 0.00 | 0.00 | 86 | 1013.7 |
| 20260905131010 | 81 | 255 | 0.9 | 1.7 | 0.00 | 0.00 | 0.00 | 85 | 1013.7 |
| 20260905130514 | 81 | 274 | 0.9 | 3.5 | 0.00 | 0.00 | 0.00 | 86 | 1013.6 |
| 20260905130107 | 80 | 284 | 0.9 | 3.5 | 0.00 | 0.00 | 0.00 | 87 | 1013.8 |
| 20260905130028 | 80 | 278 | 0.9 | 3.5 | 0.00 | 0.00 | 0.00 | 87 | 1013.6 |
| 20260905125517 | 80 | 283 | 0.9 | 1.7 | 0.00 | 0.00 | 0.00 | 88 | 1013.7 |
| 20260905125018 | 79 | 263 | 0.0 | 1.7 | 0.00 | 0.00 | 0.00 | 89 | 1013.7 |
| 20260905124600 | 79 | 0 | 0.0 | 0.0 | 0.00 | 0.00 | 0.00 | 90 | 1013.9 |
| 20260905124529 | 79 | 267 | 0.0 | 0.0 | 0.00 | 0.00 | 0.00 | 90 | 1013.6 |
| 20260905124014 | 78 | 275 | 0.0 | 0.0 | 0.00 | 0.00 | 0.00 | 90 | 1013.6 |
| 20260905123516 | 78 | 275 | 0.0 | 0.9 | 0.00 | 0.00 | 0.00 | 90 | 1013.6 |
| 20260905123105 | 77 | 0 | 0.0 | 0.9 | 0.00 | 0.00 | 0.00 | 91 | 1013.7 |
| 20260905123032 | 77 | 274 | 0.0 | 0.9 | 0.00 | 0.00 | 0.00 | 91 | 1013.5 |
| 20260905122503 | 77 | 274 | 0.0 | 0.0 | 0.00 | 0.00 | 0.00 | 92 | 1013.4 |
| 20260905122008 | 76 | 274 | 0.0 | 0.0 | 0.00 | 0.00 | 0.00 | 92 | 1013.4 |
| 20260905121605 | 76 | 0 | 0.0 | 0.0 | 0.00 | 0.00 | 0.00 | 93 | 1013.6 |
| 20260905121516 | 76 | 274 | 0.0 | 0.0 | 0.00 | 0.00 | 0.00 | 93 | 1013.3 |
| 20260905121008 | 75 | 274 | 0.0 | 0.0 | 0.00 | 0.00 | 0.00 | 94 | 1013.3 |
| 20260905120508 | 75 | 274 | 0.0 | 0.0 | 0.00 | 0.00 | 0.00 | 94 | 1013.2 |
| 20260905120105 | 74 | 0 | 0.0 | 0.0 | 0.00 | 0.00 | 0.00 | 94 | 1013.4 |
| 20260905120027 | 74 | 274 | 0.0 | 0.0 | 0.00 | 0.00 | 0.00 | 94 | 1013.1 |
| 20260905115511 | 74 | 274 | 0.0 | 0.0 | 0.00 | 0.00 | 0.00 | 94 | 1013.1 |
| 20260905115011 | 74 | 274 | 0.0 | 0.0 | 0.00 | 0.00 | 0.00 | 94 | 1013.1 |
| 20260905114602 | 74 | 0 | 0.0 | 0.0 | 0.00 | 0.00 | 0.00 | 94 | 1013.3 |
| 20260905114528 | 74 | 274 | 0.0 | 0.0 | 0.00 | 0.00 | 0.00 | 95 | 1013.0 |
| 20260905114012 | 74 | 274 | 0.0 | 0.0 | 0.00 | 0.00 | 0.00 | 95 | 1013.0 |
| 20260905113514 | 74 | 274 | 0.0 | 0.0 | 0.00 | 0.00 | 0.00 | 95 | 1013.0 |
| 20260905113101 | 73 | 0 | 0.0 | 0.0 | 0.00 | 0.00 | 0.00 | 95 | 1013.3 |
| 20260905113031 | 73 | 274 | 0.0 | 0.0 | 0.00 | 0.00 | 0.00 | 95 | 1013.1 |
| 20260905112515 | 73 | 274 | 0.0 | 0.0 | 0.00 | 0.00 | 0.00 | 95 | 1013.0 |
| 20260905112014 | 73 | 274 | 0.0 | 0.0 | 0.00 | 0.00 | 0.00 | 95 | 1013.0 |
| 20260905111645 | 74 | 0 | 0.0 | 0.0 | 0.00 | 0.00 | 0.00 | 94 | 1013.3 |
| 20260905111539 | 74 | 274 | 0.0 | 0.0 | 0.00 | 0.00 | 0.00 | 94 | 1012.9 |
| 20260905111008 | 74 | 274 | 0.0 | 0.0 | 0.00 | 0.00 | 0.00 | 94 | 1012.9 |
| 20260905110507 | 74 | 273 | 0.0 | 0.0 | 0.00 | 0.00 | 0.00 | 94 | 1013.0 |
| 20260905110017 | 74 | 274 | 0.0 | 0.0 | 0.00 | 0.00 | 0.00 | 94 | 1013.0 |
| 20260905105511 | 74 | 273 | 0.0 | 0.9 | 0.00 | 0.00 | 0.00 | 93 | 1013.0 |
| 20260905105010 | 74 | 283 | 0.0 | 0.9 | 0.00 | 0.00 | 0.00 | 93 | 1013.0 |
| 20260905104607 | 74 | 0 | 0.0 | 0.9 | 0.00 | 0.00 | 0.00 | 93 | 1013.2 |
| 20260905104534 | 74 | 283 | 0.0 | 0.9 | 0.00 | 0.00 | 0.00 | 93 | 1012.9 |
| 20260905104010 | 75 | 283 | 0.0 | 0.9 | 0.00 | 0.00 | 0.00 | 93 | 1012.9 |
| 20260905103512 | 75 | 283 | 0.0 | 0.9 | 0.00 | 0.00 | 0.00 | 93 | 1013.0 |
| 20260905103101 | 75 | 0 | 0.0 | 0.9 | 0.00 | 0.00 | 0.00 | 93 | 1013.2 |
| 20260905103037 | 75 | 288 | 0.0 | 0.9 | 0.00 | 0.00 | 0.00 | 93 | 1013.0 |
| 20260905102514 | 75 | 287 | 0.0 | 0.9 | 0.00 | 0.00 | 0.00 | 93 | 1012.9 |
| 20260905102015 | 75 | 288 | 0.9 | 0.9 | 0.00 | 0.00 | 0.00 | 93 | 1012.9 |
| 20260905101607 | 75 | 293 | 0.9 | 1.7 | 0.00 | 0.00 | 0.00 | 93 | 1013.2 |
| 20260905101533 | 75 | 278 | 0.9 | 1.7 | 0.00 | 0.00 | 0.00 | 93 | 1013.0 |
| 20260905101018 | 75 | 285 | 0.9 | 1.7 | 0.00 | 0.00 | 0.00 | 93 | 1013.0 |
| 20260905100515 | 75 | 272 | 0.9 | 1.7 | 0.00 | 0.00 | 0.00 | 93 | 1013.0 |
| 20260905100110 | 75 | 284 | 0.9 | 1.7 | 0.00 | 0.00 | 0.00 | 93 | 1013.4 |
| 20260905100033 | 75 | 278 | 0.9 | 1.7 | 0.00 | 0.00 | 0.00 | 93 | 1013.1 |
| 20260905095507 | 74 | 262 | 0.9 | 1.7 | 0.00 | 0.00 | 0.00 | 94 | 1013.1 |
| 20260905095009 | 74 | 279 | 0.0 | 0.9 | 0.00 | 0.00 | 0.00 | 94 | 1013.1 |
| 20260905094605 | 74 | 0 | 0.0 | 0.0 | 0.00 | 0.00 | 0.00 | 94 | 1013.4 |
| 20260905094523 | 74 | 278 | 0.0 | 0.0 | 0.00 | 0.00 | 0.00 | 94 | 1013.1 |
| 20260905094013 | 74 | 272 | 0.0 | 0.0 | 0.00 | 0.00 | 0.00 | 94 | 1013.2 |
| 20260905093512 | 74 | 273 | 0.0 | 0.0 | 0.00 | 0.00 | 0.00 | 94 | 1013.1 |
| 20260905093106 | 74 | 0 | 0.0 | 0.0 | 0.00 | 0.00 | 0.00 | 94 | 1013.5 |
| 20260905093030 | 74 | 272 | 0.0 | 0.0 | 0.00 | 0.00 | 0.00 | 94 | 1013.0 |
| 20260905092511 | 74 | 273 | 0.0 | 0.0 | 0.00 | 0.00 | 0.00 | 94 | 1013.1 |
| 20260905092015 | 74 | 272 | 0.0 | 0.0 | 0.00 | 0.00 | 0.00 | 94 | 1013.0 |
| 20260905091604 | 74 | 0 | 0.0 | 0.0 | 0.00 | 0.00 | 0.00 | 94 | 1013.3 |
| 20260905091531 | 74 | 272 | 0.0 | 0.0 | 0.00 | 0.00 | 0.00 | 94 | 1013.0 |
| 20260905091013 | 74 | 272 | 0.0 | 0.0 | 0.00 | 0.00 | 0.00 | 94 | 1013.1 |
| 20260905090517 | 75 | 272 | 0.0 | 0.0 | 0.00 | 0.00 | 0.00 | 94 | 1013.0 |
| 20260905090105 | 75 | 0 | 0.0 | 0.0 | 0.00 | 0.00 | 0.00 | 94 | 1013.4 |
| 20260905090039 | 75 | 272 | 0.0 | 0.0 | 0.00 | 0.00 | 0.00 | 94 | 1013.1 |
| 20260905085520 | 75 | 272 | 0.0 | 0.0 | 0.00 | 0.00 | 0.00 | 93 | 1013.2 |
| 20260905085019 | 75 | 272 | 0.0 | 0.0 | 0.00 | 0.00 | 0.00 | 93 | 1013.2 |
| 20260905084603 | 75 | 0 | 0.0 | 0.0 | 0.00 | 0.00 | 0.00 | 93 | 1013.5 |
| 20260905084520 | 75 | 272 | 0.0 | 0.0 | 0.00 | 0.00 | 0.00 | 93 | 1013.1 |
| 20260905084008 | 75 | 272 | 0.0 | 0.0 | 0.00 | 0.00 | 0.00 | 93 | 1013.1 |
| 20260905083512 | 75 | 272 | 0.0 | 0.0 | 0.00 | 0.00 | 0.00 | 93 | 1013.1 |
| 20260905083100 | 75 | 0 | 0.0 | 0.0 | 0.00 | 0.00 | 0.00 | 93 | 1013.4 |
| 20260905083033 | 75 | 271 | 0.0 | 0.0 | 0.00 | 0.00 | 0.00 | 93 | 1013.1 |
| 20260905082512 | 76 | 271 | 0.0 | 0.0 | 0.00 | 0.00 | 0.00 | 93 | 1013.0 |
| 20260905082015 | 75 | 278 | 0.0 | 0.0 | 0.00 | 0.00 | 0.00 | 93 | 1013.1 |
| 20260905081601 | 75 | 0 | 0.0 | 0.0 | 0.00 | 0.00 | 0.00 | 93 | 1013.3 |
| 20260905081528 | 75 | 278 | 0.0 | 0.0 | 0.00 | 0.00 | 0.00 | 93 | 1013.1 |
| 20260905081016 | 75 | 273 | 0.0 | 0.0 | 0.00 | 0.00 | 0.00 | 94 | 1013.1 |
| 20260905080517 | 75 | 286 | 0.0 | 0.0 | 0.00 | 0.00 | 0.00 | 94 | 1013.1 |
| 20260905080124 | 75 | 0 | 0.0 | 0.9 | 0.00 | 0.00 | 0.00 | 94 | 1013.3 |
| 20260905080040 | 75 | 284 | 0.0 | 0.9 | 0.00 | 0.00 | 0.00 | 94 | 1013.0 |
| 20260905075515 | 75 | 276 | 0.0 | 0.9 | 0.00 | 0.00 | 0.00 | 94 | 1013.0 |
| 20260905075020 | 75 | 284 | 0.0 | 0.0 | 0.00 | 0.00 | 0.00 | 94 | 1013.1 |
| 20260905074558 | 74 | 0 | 0.0 | 0.0 | 0.00 | 0.00 | 0.00 | 94 | 1013.4 |
| 20260905074532 | 74 | 284 | 0.0 | 0.0 | 0.00 | 0.00 | 0.00 | 94 | 1013.2 |
| 20260905074019 | 74 | 284 | 0.0 | 0.0 | 0.00 | 0.00 | 0.00 | 94 | 1013.2 |
| 20260905073516 | 75 | 284 | 0.0 | 0.0 | 0.00 | 0.00 | 0.00 | 94 | 1013.2 |
| 20260905073105 | 74 | 0 | 0.0 | 0.9 | 0.00 | 0.00 | 0.00 | 94 | 1013.4 |
| 20260905073025 | 74 | 284 | 0.0 | 0.9 | 0.00 | 0.00 | 0.00 | 94 | 1013.1 |
| 20260905072512 | 75 | 284 | 0.0 | 0.9 | 0.00 | 0.00 | 0.00 | 94 | 1013.0 |
| 20260905072011 | 75 | 284 | 0.0 | 0.0 | 0.00 | 0.00 | 0.00 | 94 | 1013.2 |
| 20260905071559 | 75 | 0 | 0.0 | 0.0 | 0.00 | 0.00 | 0.00 | 94 | 1013.6 |
| 20260905071528 | 75 | 284 | 0.0 | 0.0 | 0.00 | 0.00 | 0.00 | 94 | 1013.2 |
| 20260905071006 | 75 | 284 | 0.0 | 0.0 | 0.00 | 0.00 | 0.00 | 94 | 1013.3 |
| 20260905070503 | 75 | 284 | 0.0 | 0.0 | 0.00 | 0.00 | 0.00 | 94 | 1013.3 |
| 20260905070105 | 75 | 0 | 0.0 | 0.0 | 0.00 | 0.00 | 0.00 | 93 | 1013.7 |
| 20260905070013 | 75 | 284 | 0.0 | 0.0 | 0.00 | 0.00 | 0.00 | 93 | 1013.4 |
| 20260905065503 | 75 | 284 | 0.0 | 0.0 | 0.00 | 0.00 | 0.00 | 93 | 1013.4 |
| 20260905065004 | 75 | 284 | 0.0 | 0.0 | 0.00 | 0.00 | 0.00 | 93 | 1013.5 |
| 20260905064604 | 75 | 0 | 0.0 | 0.0 | 0.00 | 0.00 | 0.00 | 93 | 1013.8 |
| 20260905064508 | 75 | 284 | 0.0 | 0.0 | 0.00 | 0.00 | 0.00 | 93 | 1013.5 |
| 20260905064003 | 75 | 284 | 0.0 | 0.0 | 0.00 | 0.00 | 0.00 | 93 | 1013.5 |
| 20260905063508 | 75 | 284 | 0.0 | 0.0 | 0.00 | 0.00 | 0.00 | 93 | 1013.5 |
| 20260905063103 | 75 | 0 | 0.0 | 0.0 | 0.00 | 0.00 | 0.00 | 93 | 1013.9 |
| 20260905063009 | 75 | 284 | 0.0 | 0.0 | 0.00 | 0.00 | 0.00 | 93 | 1013.6 |
| 20260905062503 | 75 | 284 | 0.0 | 0.0 | 0.00 | 0.00 | 0.00 | 93 | 1013.7 |
| 20260905062003 | 75 | 284 | 0.0 | 0.0 | 0.00 | 0.00 | 0.00 | 93 | 1013.7 |
| 20260905061610 | 75 | 0 | 0.0 | 0.0 | 0.00 | 0.00 | 0.00 | 93 | 1014.0 |
| 20260905061512 | 75 | 284 | 0.0 | 0.0 | 0.00 | 0.00 | 0.00 | 93 | 1013.7 |
| 20260905061003 | 75 | 284 | 0.0 | 0.0 | 0.00 | 0.00 | 0.00 | 92 | 1013.6 |
| 20260905060503 | 75 | 284 | 0.0 | 0.0 | 0.00 | 0.00 | 0.00 | 92 | 1013.6 |
| 20260905060109 | 75 | 0 | 0.0 | 0.0 | 0.00 | 0.00 | 0.00 | 93 | 1014.0 |
| 20260905060005 | 75 | 284 | 0.0 | 0.0 | 0.00 | 0.00 | 0.00 | 93 | 1013.7 |
| 20260905055502 | 75 | 284 | 0.0 | 0.0 | 0.00 | 0.00 | 0.00 | 92 | 1013.7 |
| 20260905055004 | 75 | 284 | 0.0 | 0.0 | 0.00 | 0.00 | 0.00 | 92 | 1013.7 |
| 20260905054601 | 76 | 0 | 0.0 | 0.0 | 0.00 | 0.00 | 0.00 | 92 | 1014.1 |
| 20260905054510 | 76 | 284 | 0.0 | 0.0 | 0.00 | 0.00 | 0.00 | 92 | 1013.7 |
| 20260905054005 | 76 | 284 | 0.0 | 0.0 | 0.00 | 0.00 | 0.00 | 92 | 1013.8 |
| 20260905053504 | 75 | 284 | 0.0 | 0.0 | 0.00 | 0.00 | 0.00 | 92 | 1013.8 |
| 20260905053111 | 76 | 0 | 0.0 | 0.0 | 0.00 | 0.00 | 0.00 | 92 | 1014.1 |
| 20260905053012 | 76 | 284 | 0.0 | 0.0 | 0.00 | 0.00 | 0.00 | 92 | 1013.8 |
| 20260905052505 | 76 | 284 | 0.0 | 0.0 | 0.00 | 0.00 | 0.00 | 91 | 1013.7 |
| 20260905052004 | 76 | 284 | 0.0 | 0.0 | 0.00 | 0.00 | 0.00 | 92 | 1013.7 |
| 20260905051558 | 76 | 0 | 0.0 | 0.0 | 0.00 | 0.00 | 0.00 | 92 | 1014.1 |
| 20260905051523 | 76 | 284 | 0.0 | 0.0 | 0.00 | 0.00 | 0.00 | 92 | 1013.8 |
| 20260905051005 | 76 | 284 | 0.0 | 0.0 | 0.00 | 0.00 | 0.00 | 92 | 1013.8 |
| 20260905050503 | 75 | 284 | 0.0 | 0.0 | 0.00 | 0.00 | 0.00 | 93 | 1013.8 |
| 20260905050110 | 75 | 0 | 0.0 | 0.0 | 0.00 | 0.00 | 0.00 | 93 | 1014.2 |
| 20260905050013 | 75 | 284 | 0.0 | 0.0 | 0.00 | 0.00 | 0.00 | 93 | 1013.8 |
| 20260905045503 | 75 | 284 | 0.0 | 0.0 | 0.00 | 0.00 | 0.00 | 93 | 1013.7 |
| 20260905045003 | 75 | 284 | 0.0 | 0.0 | 0.00 | 0.00 | 0.00 | 92 | 1013.6 |
| 20260905044601 | 76 | 0 | 0.0 | 0.0 | 0.00 | 0.00 | 0.00 | 92 | 1013.9 |
| 20260905044508 | 76 | 284 | 0.0 | 0.0 | 0.00 | 0.00 | 0.00 | 92 | 1013.7 |
| 20260905044004 | 76 | 284 | 0.0 | 0.0 | 0.00 | 0.00 | 0.00 | 92 | 1013.8 |
| 20260905043504 | 76 | 284 | 0.0 | 0.0 | 0.00 | 0.00 | 0.00 | 92 | 1013.9 |
| 20260905043105 | 76 | 0 | 0.0 | 0.0 | 0.00 | 0.00 | 0.00 | 91 | 1014.0 |
| 20260905043011 | 76 | 284 | 0.0 | 0.0 | 0.00 | 0.00 | 0.00 | 91 | 1013.8 |
| 20260905042508 | 76 | 284 | 0.0 | 0.0 | 0.00 | 0.00 | 0.00 | 91 | 1013.8 |
| 20260905042003 | 76 | 284 | 0.0 | 0.0 | 0.00 | 0.00 | 0.00 | 92 | 1013.9 |
| 20260905041600 | 76 | 0 | 0.0 | 0.0 | 0.00 | 0.00 | 0.00 | 92 | 1014.0 |
| 20260905041512 | 76 | 284 | 0.0 | 0.0 | 0.00 | 0.00 | 0.00 | 92 | 1013.8 |
| 20260905041003 | 76 | 284 | 0.0 | 0.0 | 0.00 | 0.00 | 0.00 | 92 | 1013.8 |
| 20260905040505 | 76 | 284 | 0.0 | 0.0 | 0.00 | 0.00 | 0.00 | 92 | 1013.8 |
| 20260905040106 | 76 | 0 | 0.0 | 0.0 | 0.00 | 0.00 | 0.00 | 92 | 1013.9 |
| 20260905040014 | 76 | 284 | 0.0 | 0.0 | 0.00 | 0.00 | 0.00 | 92 | 1013.9 |
| 20260905035504 | 76 | 284 | 0.0 | 0.0 | 0.00 | 0.00 | 0.00 | 92 | 1013.8 |
| 20260905035003 | 76 | 284 | 0.0 | 0.0 | 0.00 | 0.00 | 0.00 | 92 | 1013.8 |
| 20260905034617 | 76 | 0 | 0.0 | 0.0 | 0.00 | 0.00 | 0.00 | 92 | 1013.9 |
| 20260905034516 | 76 | 284 | 0.0 | 0.0 | 0.00 | 0.00 | 0.00 | 92 | 1013.7 |
| 20260905034006 | 76 | 284 | 0.0 | 0.0 | 0.00 | 0.00 | 0.00 | 92 | 1013.7 |
| 20260905033509 | 76 | 284 | 0.0 | 0.0 | 0.00 | 0.00 | 0.00 | 92 | 1013.6 |
| 20260905033118 | 76 | 0 | 0.0 | 0.0 | 0.00 | 0.00 | 0.00 | 92 | 1013.8 |
| 20260905033005 | 76 | 284 | 0.0 | 0.0 | 0.00 | 0.00 | 0.00 | 92 | 1013.7 |
| 20260905032505 | 76 | 284 | 0.0 | 0.0 | 0.00 | 0.00 | 0.00 | 92 | 1013.8 |
| 20260905032005 | 76 | 284 | 0.0 | 0.0 | 0.00 | 0.00 | 0.00 | 92 | 1014.0 |
| 20260905031614 | 76 | 0 | 0.0 | 0.0 | 0.00 | 0.00 | 0.00 | 93 | 1014.1 |
| 20260905031514 | 76 | 284 | 0.0 | 0.0 | 0.00 | 0.00 | 0.00 | 93 | 1013.9 |
| 20260905031006 | 77 | 284 | 0.0 | 0.0 | 0.00 | 0.00 | 0.00 | 92 | 1013.8 |
| 20260905030506 | 77 | 284 | 0.0 | 0.0 | 0.00 | 0.00 | 0.00 | 92 | 1013.8 |
| 20260905030104 | 77 | 0 | 0.0 | 0.0 | 0.00 | 0.00 | 0.00 | 92 | 1014.0 |
| 20260905030015 | 77 | 284 | 0.0 | 0.0 | 0.00 | 0.00 | 0.00 | 92 | 1013.8 |
| 20260905025507 | 77 | 284 | 0.0 | 0.0 | 0.00 | 0.00 | 0.00 | 92 | 1013.8 |
| 20260905025007 | 77 | 284 | 0.0 | 0.0 | 0.00 | 0.00 | 0.00 | 92 | 1013.8 |
| 20260905024558 | 77 | 0 | 0.0 | 0.0 | 0.00 | 0.00 | 0.00 | 92 | 1013.9 |
| 20260905024515 | 77 | 284 | 0.0 | 0.0 | 0.00 | 0.00 | 0.00 | 92 | 1013.8 |
| 20260905024007 | 77 | 284 | 0.0 | 0.0 | 0.00 | 0.00 | 0.00 | 92 | 1013.9 |
| 20260905023507 | 78 | 284 | 0.0 | 0.0 | 0.00 | 0.00 | 0.00 | 92 | 1013.9 |
| 20260905023126 | 78 | 0 | 0.0 | 0.0 | 0.00 | 0.00 | 0.00 | 92 | 1014.0 |
| 20260905023019 | 78 | 284 | 0.0 | 0.0 | 0.00 | 0.00 | 0.00 | 92 | 1013.9 |
| 20260905022511 | 78 | 283 | 0.0 | 0.0 | 0.00 | 0.00 | 0.00 | 91 | 1013.8 |
| 20260905022010 | 78 | 284 | 0.0 | 0.0 | 0.00 | 0.00 | 0.00 | 92 | 1013.8 |
| 20260905021602 | 78 | 0 | 0.0 | 0.0 | 0.00 | 0.00 | 0.00 | 92 | 1014.0 |
| 20260905021508 | 78 | 284 | 0.0 | 0.0 | 0.00 | 0.00 | 0.00 | 92 | 1013.8 |